Temp
-14 -14 -15 -15 -15 -16 -16 -16 -15 -16 -16 -17 -17 -17 -18 -21 -23 -25 -25 -26 -26 -27 -27 -27 -27 -27 -26 -26 -26 -26 -25 -23 -22 -21 -20 -18 -18 -18 -18 -17 -16 -16 -17 -17
-14 -15 -15 -15 -16 -17 -16 -16 -16 -17 -17 -17 -17 -18 -19 -22 -23 -24 -25 -26 -26 -27 -27 -28 -28 -28 -28 -27 -27 -27 -26 -25 -22 -22 -21 -19 -18 -18 -18 -18 -18 -17 -17 -18
-15 -15 -15 -15 -16 -17 -17 -16 -16 -17 -17 -17 -17 -18 -19 -22 -22 -24 -25 -25 -26 -27 -27 -28 -28 -28 -28 -28 -28 -28 -27 -27 -24 -22 -22 -20 -19 -18 -18 -18 -18 -20 -18 -18
-15 -15 -15 -16 -16 -17 -17 -16 -17 -17 -17 -17 -17 -18 -19 -22 -22 -24 -25 -25 -26 -26 -27 -27 -28 -28 -28 -28 -28 -27 -27 -26 -25 -22 -22 -20 -19 -19 -19 -19 -19 -19 -18 -18
-15 -15 -16 -16 -17 -17 -17 -16 -17 -17 -16 -17 -17 -18 -19 -21 -23 -24 -24 -25 -26 -26 -27 -27 -27 -27 -27 -27 -27 -27 -26 -25 -25 -23 -22 -21 -19 -19 -19 -19 -19 -19 -19 -18
-15 -16 -16 -16 -17 -17 -18 -17 -17 -17 -17 -17 -17 -18 -19 -21 -23 -24 -24 -25 -26 -26 -26 -27 -27 -27 -27 -27 -27 -26 -25 -24 -24 -23 -22 -20 -19 -19 -19 -19 -19 -19 -19 -19
-15 -16 -16 -17 -17 -18 -18 -17 -17 -16 -17 -17 -17 -18 -19 -20 -22 -23 -24 -25 -25 -26 -26 -26 -26 -26 -26 -26 -26 -25 -25 -24 -23 -22 -21 -20 -19 -19 -19 -19 -19 -19 -19 -19
-15 -16 -16 -17 -17 -18 -18 -17 -18 -17 -17 -17 -18 -18 -19 -20 -21 -23 -24 -24 -25 -26 -26 -26 -26 -26 -26 -25 -25 -25 -24 -23 -22 -21 -20 -20 -19 -19 -19 -19 -19 -19 -19 -19
-15 -16 -16 -17 -18 -18 -18 -17 -17 -17 -17 -17 -17 -18 -19 -20 -21 -23 -23 -24 -24 -25 -25 -25 -26 -26 -26 -25 -25 -25 -24 -22 -21 -20 -20 -20 -19 -19 -19 -19 -19 -19 -19 -19
-15 -16 -16 -17 -18 -18 -18 -18 -17 -18 -18 -17 -18 -18 -20 -20 -21 -21 -23 -24 -24 -25 -25 -25 -25 -25 -25 -25 -25 -24 -24 -22 -21 -20 -20 -20 -19 -19 -19 -19 -19 -19 -19 -19
-16 -16 -16 -17 -18 -18 -18 -17 -18 -18 -18 -18 -18 -18 -19 -20 -21 -22 -23 -23 -23 -24 -24 -24 -25 -25 -25 -25 -24 -24 -23 -22 -21 -20 -20 -19 -19 -19 -19 -19 -19 -19 -19 -19
-16 -16 -16 -17 -18 -18 -18 -18 -18 -18 -19 -19 -19 -18 -19 -19 -20 -22 -23 -23 -23 -23 -24 -24 -24 -24 -25 -25 -24 -23 -23 -22 -21 -20 -20 -20 -20 -20 -20 -20 -20 -20 -20 -19
-16 -16 -16 -17 -17 -18 -17 -18 -18 -19 -19 -19 -19 -18 -19 -19 -19 -22 -23 -22 -22 -22 -23 -23 -23 -23 -23 -24 -24 -23 -23 -22 -22 -21 -21 -21 -21 -21 -20 -20 -20 -20 -19 -19
-16 -16 -16 -17 -17 -17 -17 -18 -19 -19 -19 -19 -19 -19 -19 -18 -19 -19 -19 -20 -20 -21 -22 -23 -23 -22 -22 -22 -22 -22 -21 -21 -21 -21 -21 -21 -21 -21 -21 -21 -20 -20 -20 -20
-16 -16 -16 -17 -17 -17 -17 -18 -19 -19 -19 -19 -19 -19 -19 -18 -19 -19 -19 -19 -20 -20 -21 -21 -21 -21 -21 -21 -21 -21 -21 -21 -21 -21 -21 -21 -21 -21 -21 -21 -20 -19 -19 -19
-16 -16 -16 -17 -17 -17 -18 -18 -19 -19 -19 -19 -19 -19 -19 -18 -19 -19 -19 -19 -19 -19 -20 -20 -20 -20 -20 -20 -20 -20 -20 -21 -21 -21 -21 -21 -21 -20 -20 -20 -19 -19 -19 -18
-16 -16 -16 -17 -17 -17 -17 -18 -19 -19 -19 -19 -19 -19 -19 -19 -19 -19 -19 -19 -19 -19 -19 -20 -19 -19 -20 -20 -20 -20 -20 -20 -20 -20 -20 -19 -20 -20 -20 -20 -19 -19 -19 -18
-16 -16 -16 -16 -16 -17 -17 -18 -19 -19 -19 -19 -19 -19 -19 -19 -19 -19 -19 -19 -19 -19 -19 -19 -20 -20 -20 -20 -20 -19 -20 -19 -20 -20 -20 -20 -20 -20 -19 -19 -18 -19 -19 -19
-16 -16 -16 -16 -16 -17 -17 -18 -19 -19 -19 -19 -19 -19 -19 -19 -19 -19 -19 -19 -19 -20 -20 -20 -20 -20 -20 -20 -20 -19 -19 -19 -20 -20 -20 -20 -20 -20 -19 -19 -19 -19 -19 -19
-16 -16 -16 -16 -16 -16 -17 -17 -18 -18 -19 -19 -19 -19 -19 -19 -19 -19 -19 -19 -19 -19 -19 -19 -19 -19 -20 -20 -20 -20 -20 -20 -20 -20 -20 -20 -21 -21 -21 -21 -21 -20 -20 -20
-16 -16 -16 -16 -16 -16 -16 -17 -17 -18 -18 -18 -18 -18 -18 -18 -18 -19 -19 -19 -19 -19 -19 -19 -20 -20 -20 -20 -20 -20 -20 -20 -20 -20 -20 -20 -20 -20 -20 -20 -20 -20 -20 -20
-16 -16 -16 -16 -16 -16 -16 -16 -17 -17 -18 -18 -18 -18 -18 -18 -18 -19 -19 -19 -19 -19 -19 -19 -19 -20 -20 -20 -20 -20 -20 -20 -20 -20 -20 -20 -20 -20 -20 -20 -20 -19 -19 -19
-16 -16 -16 -16 -16 -16 -16 -16 -16 -17 -17 -17 -18 -18 -18 -18 -19 -19 -19 -19 -19 -19 -19 -19 -20 -20 -20 -20 -20 -20 -20 -19 -19 -19 -19 -19 -19 -19 -19 -19 -19 -19 -19 -19
-16 -16 -16 -16 -16 -16 -16 -16 -16 -17 -17 -17 -17 -18 -18 -18 -18 -19 -19 -19 -19 -19 -19 -19 -20 -20 -20 -20 -20 -20 -19 -19 -19 -19 -19 -19 -19 -19 -19 -19 -19 -19 -19 -19
-17 -17 -17 -17 -16 -17 -17 -17 -17 -17 -17 -17 -17 -17 -18 -18 -18 -18 -18 -19 -19 -19 -19 -19 -19 -20 -20 -20 -20 -20 -19 -19 -19 -19 -19 -19 -19 -19 -19 -19 -19 -19 -19 -19
-17 -17 -16 -17 -16 -17 -16 -17 -17 -17 -17 -17 -17 -17 -17 -18 -18 -18 -18 -18 -19 -19 -19 -19 -19 -19 -19 -19 -19 -20 -19 -19 -19 -19 -19 -19 -19 -19 -19 -19 -19 -19 -19 -19
Height
5707 5703 5697 5691 5685 5676 5669 5663 5655 5645 5634 5620 5607 5589 5571 5552 5536 5526 5520 5514 5505 5499 5492 5485 5478 5474 5473 5473 5477 5484 5492 5506 5521 5536 5550 5567 5581 5590 5601 5609 5618 5627 5636 5643
5702 5697 5692 5685 5678 5670 5663 5655 5647 5639 5626 5612 5598 5579 5561 5544 5529 5521 5514 5507 5501 5494 5486 5479 5474 5470 5464 5462 5465 5472 5482 5491 5505 5522 5537 5552 5569 5578 5588 5597 5605 5612 5626 5632
5695 5691 5685 5678 5671 5664 5656 5648 5640 5631 5620 5606 5592 5575 5555 5538 5524 5517 5509 5502 5495 5489 5481 5474 5469 5465 5461 5459 5462 5470 5475 5483 5493 5510 5526 5541 5555 5567 5577 5587 5595 5604 5615 5623
5689 5684 5679 5672 5664 5657 5650 5642 5634 5625 5613 5599 5585 5570 5552 5534 5521 5512 5505 5497 5489 5482 5476 5470 5465 5462 5460 5459 5461 5466 5470 5476 5485 5501 5518 5532 5547 5559 5567 5576 5589 5597 5606 5615
5684 5678 5674 5667 5658 5651 5643 5635 5628 5619 5607 5594 5581 5565 5547 5530 5518 5508 5501 5493 5486 5479 5473 5466 5462 5459 5458 5458 5460 5463 5466 5471 5480 5495 5512 5526 5541 5554 5565 5574 5583 5591 5598 5607
5678 5673 5669 5661 5652 5645 5637 5630 5622 5614 5602 5591 5578 5563 5547 5529 5517 5504 5497 5490 5483 5477 5472 5466 5461 5459 5457 5457 5458 5461 5464 5468 5478 5492 5507 5522 5536 5548 5559 5569 5578 5586 5593 5601
5673 5668 5663 5656 5647 5640 5632 5624 5616 5609 5599 5588 5574 5560 5545 5529 5516 5505 5496 5489 5483 5477 5472 5467 5462 5460 5458 5457 5458 5459 5463 5468 5478 5491 5506 5519 5531 5542 5552 5562 5571 5580 5587 5595
5668 5664 5659 5651 5643 5635 5626 5620 5613 5604 5596 5585 5573 5559 5545 5529 5515 5503 5494 5488 5484 5479 5474 5469 5464 5460 5458 5457 5458 5460 5464 5470 5480 5493 5505 5516 5527 5537 5545 5556 5565 5573 5581 5589
5662 5660 5654 5647 5639 5630 5622 5616 5610 5601 5592 5582 5572 5559 5544 5528 5514 5502 5494 5488 5484 5480 5476 5472 5467 5463 5460 5459 5460 5462 5466 5472 5482 5493 5504 5515 5524 5532 5540 5548 5558 5566 5574 5582
5659 5655 5650 5643 5634 5627 5620 5614 5606 5598 5588 5579 5571 5558 5544 5529 5514 5502 5494 5489 5485 5483 5480 5476 5472 5469 5467 5465 5464 5466 5470 5476 5485 5495 5503 5512 5521 5528 5536 5543 5550 5558 5565 5573
5654 5652 5648 5639 5631 5624 5619 5611 5602 5596 5589 5577 5568 5558 5545 5532 5515 5503 5495 5490 5488 5486 5485 5483 5480 5477 5473 5471 5470 5473 5476 5482 5488 5496 5505 5512 5520 5526 5533 5539 5545 5552 5559 5566
5650 5647 5643 5637 5629 5622 5615 5607 5600 5593 5587 5577 5568 5560 5547 5535 5519 5505 5500 5494 5493 5491 5491 5489 5487 5484 5481 5479 5479 5481 5484 5488 5494 5500 5506 5512 5518 5524 5530 5536 5542 5548 5554 5561
5646 5643 5638 5635 5629 5621 5613 5605 5597 5591 5585 5577 5568 5559 5550 5539 5525 5510 5505 5501 5499 5499 5498 5497 5496 5494 5491 5489 5489 5488 5490 5494 5499 5504 5509 5514 5518 5524 5529 5535 5541 5546 5551 5556
5642 5640 5635 5630 5623 5616 5610 5603 5595 5588 5584 5577 5570 5562 5553 5545 5533 5520 5516 5511 5508 5508 5506 5505 5504 5502 5500 5499 5498 5499 5501 5505 5508 5512 5516 5520 5524 5527 5532 5536 5540 5545 5552 5556
5638 5637 5633 5627 5621 5615 5608 5600 5593 5588 5583 5577 5571 5564 5557 5550 5541 5531 5529 5523 5520 5517 5515 5513 5512 5510 5509 5508 5507 5508 5510 5512 5514 5517 5520 5522 5526 5529 5534 5538 5542 5549 5554 5559
5635 5634 5631 5626 5620 5614 5607 5599 5593 5589 5584 5579 5572 5567 5561 5555 5548 5540 5536 5533 5530 5528 5525 5523 5522 5520 5519 5517 5516 5515 5516 5517 5519 5520 5522 5524 5528 5533 5539 5543 5546 5549 5554 5558
5631 5631 5629 5625 5620 5614 5607 5599 5594 5590 5586 5582 5576 5571 5565 5559 5554 5548 5543 5541 5539 5536 5535 5532 5530 5528 5526 5524 5522 5523 5524 5524 5525 5525 5524 5527 5533 5537 5540 5544 5547 5551 5555 5559
5628 5628 5626 5623 5618 5614 5607 5600 5596 5592 5589 5585 5582 5576 5571 5564 5559 5555 5552 5549 5547 5543 5541 5538 5536 5535 5534 5533 5532 5531 5531 5531 5530 5529 5529 5534 5539 5541 5544 5547 5551 5555 5558 5560
5625 5625 5624 5621 5617 5614 5607 5602 5598 5595 5593 5589 5587 5583 5579 5573 5567 5564 5560 5558 5555 5551 5549 5548 5547 5547 5544 5542 5540 5538 5538 5537 5536 5537 5539 5542 5544 5547 5550 5552 5555 5558 5560 5562
5621 5622 5622 5619 5617 5613 5608 5604 5600 5597 5596 5593 5591 5589 5586 5582 5577 5574 5570 5567 5565 5563 5561 5558 5556 5555 5553 5552 5551 5551 5550 5549 5549 5549 5550 5550 5552 5553 5555 5557 5559 5562 5564 5565
5616 5618 5619 5618 5615 5613 5609 5606 5603 5601 5602 5597 5595 5594 5592 5588 5585 5582 5579 5577 5574 5572 5570 5568 5567 5566 5564 5563 5561 5560 5558 5557 5556 5556 5556 5557 5558 5559 5560 5562 5562 5564 5565 5566
5612 5614 5615 5615 5614 5612 5609 5607 5606 5604 5601 5600 5599 5597 5596 5594 5592 5589 5586 5584 5581 5579 5578 5577 5576 5574 5573 5570 5568 5566 5565 5564 5562 5562 5562 5563 5563 5563 5564 5564 5565 5566 5567 5566
5608 5610 5612 5612 5612 5610 5609 5607 5606 5604 5604 5602 5601 5600 5598 5597 5596 5594 5591 5589 5587 5586 5584 5583 5581 5580 5577 5575 5573 5571 5569 5567 5565 5564 5564 5565 5566 5566 5566 5566 5567 5567 5567 5566
5601 5604 5607 5608 5608 5608 5608 5607 5605 5604 5604 5603 5602 5601 5600 5599 5598 5596 5595 5593 5591 5589 5588 5586 5584 5582 5580 5579 5576 5574 5571 5570 5569 5568 5567 5566 5566 5566 5565 5565 5564 5564 5562 5561
5595 5599 5601 5603 5603 5604 5605 5605 5603 5602 5602 5602 5602 5601 5600 5599 5598 5596 5595 5594 5592 5591 5590 5588 5586 5584 5582 5580 5578 5575 5573 5571 5570 5568 5567 5566 5565 5564 5563 5562 5561 5560 5558 5557
5589 5590 5592 5596 5598 5599 5600 5601 5601 5600 5600 5600 5600 5599 5599 5598 5597 5596 5595 5594 5593 5592 5590 5588 5586 5584 5582 5580 5578 5576 5574 5572 5570 5568 5566 5564 5563 5561 5560 5558 5556 5554 5552 5551
Wind_Speed
30 32 33 33 34 31 26 32 35 45 52 61 65 68 70 57 44 34 33 35 34 35 33 31 26 27 30 37 45 52 65 74 81 81 77 75 71 70 70 79 77 73 71 68
30 33 34 33 33 28 28 33 40 44 53 61 63 66 63 53 39 31 32 34 32 32 31 26 20 17 19 27 32 39 50 62 73 79 76 73 71 67 67 72 75 81 64 60
29 33 34 34 33 29 30 34 41 46 52 57 63 63 62 50 40 29 30 30 30 26 25 22 20 16 15 18 24 27 34 41 64 73 73 71 69 67 63 62 53 61 66 56
29 31 34 35 35 33 28 33 39 43 50 56 62 61 60 46 39 28 25 26 27 24 20 15 16 15 12 13 23 24 29 36 53 68 70 69 67 62 59 52 48 47 56 61
30 32 34 36 36 35 31 33 37 42 49 54 58 61 61 44 40 25 26 25 24 20 16 10 9 9 10 12 22 22 25 33 40 60 64 65 63 61 57 52 48 45 46 55
29 31 33 35 36 35 32 32 35 40 47 51 56 58 60 48 37 28 23 25 20 17 14 9 7 7 5 8 14 19 23 28 33 45 55 57 57 56 54 49 46 44 43 45
28 30 32 35 37 34 31 31 34 38 43 47 53 56 56 52 37 29 17 21 18 14 16 10 6 4 4 7 11 17 22 27 28 35 43 48 48 49 51 48 46 46 45 45
28 29 32 35 37 35 27 30 32 36 39 43 50 52 54 55 40 29 15 15 15 13 12 9 5 3 1 6 10 16 23 27 27 28 31 35 40 43 45 47 46 46 46 45
29 27 32 35 35 31 25 29 31 35 36 40 49 52 51 53 46 26 17 12 14 13 14 13 11 10 11 7 9 11 18 26 25 22 24 28 34 39 39 40 43 44 43 43
27 27 30 34 31 25 26 29 30 31 36 40 44 47 46 51 47 33 18 9 11 11 14 15 17 16 12 10 11 12 16 22 25 27 29 30 32 34 36 35 36 39 41 42
25 25 28 30 25 24 27 29 30 29 31 38 42 44 43 49 49 35 17 13 11 10 12 14 18 18 16 13 13 15 17 19 22 25 25 25 25 26 27 29 29 31 32 33
23 23 26 27 23 25 28 31 32 28 29 33 38 40 40 45 48 34 19 17 13 12 12 14 17 20 20 17 17 17 18 21 22 23 24 24 24 24 24 23 23 24 25 28
20 22 26 26 22 22 28 32 33 24 26 30 35 38 36 40 46 33 22 17 13 14 16 17 16 19 21 23 18 11 15 18 20 21 22 23 23 24 24 24 25 26 31 35
19 20 25 28 22 25 28 33 32 21 23 25 28 29 31 33 40 38 32 25 21 20 19 19 21 20 22 24 18 15 16 16 15 13 12 12 14 18 21 23 26 29 25 27
18 17 21 26 21 25 30 33 24 18 21 22 24 27 26 28 35 36 29 25 25 23 23 23 22 23 22 21 18 16 15 12 12 11 12 12 14 15 18 20 24 23 16 21
16 16 18 20 19 24 30 25 17 18 18 19 23 25 22 25 31 26 26 29 22 26 25 27 29 25 21 24 22 18 19 16 16 15 7 4 12 17 21 18 18 15 21 17
15 15 16 14 16 22 27 20 17 17 17 18 22 24 22 23 26 30 24 25 29 25 27 29 27 26 26 29 34 23 18 17 17 9 7 16 19 25 7 10 15 15 17 12
12 13 13 12 16 21 25 20 16 16 17 19 21 26 30 29 29 29 30 26 22 22 25 27 29 28 24 25 29 29 26 24 22 24 30 24 22 14 12 15 12 13 10 10
12 11 10 8 14 19 24 21 16 15 16 18 18 25 32 37 39 38 36 38 45 50 52 51 49 45 45 41 36 36 31 30 30 28 22 19 15 16 18 16 14 14 6 2
11 9 7 4 9 16 21 22 18 15 16 17 17 22 27 33 37 38 40 42 43 41 41 41 41 40 40 38 38 36 35 34 36 32 32 29 26 24 20 17 15 13 10 9
11 8 7 2 5 10 15 18 18 16 16 19 20 22 24 28 31 33 34 34 36 37 37 37 36 35 33 32 31 30 29 28 25 23 20 18 15 13 10 9 7 5 2 1
13 9 8 4 2 4 10 13 15 14 16 18 21 22 21 22 24 25 26 28 29 29 29 29 29 29 29 27 26 24 22 18 16 15 13 10 8 7 5 3 2 4 5 6
16 12 9 8 7 4 5 9 9 11 12 15 19 18 16 16 16 18 19 19 20 21 22 22 23 24 25 25 23 21 18 14 12 11 9 7 5 3 2 2 3 4 6 7
20 17 11 12 11 9 6 6 7 7 7 10 14 14 13 11 11 11 10 11 13 15 16 18 20 22 23 24 22 18 15 14 14 12 10 9 8 7 5 4 5 7 10 12
24 20 18 14 14 13 11 9 8 8 8 8 8 9 9 8 6 5 3 5 9 11 13 16 18 20 23 23 21 17 11 9 8 8 6 4 4 5 5 6 8 10 12 14
27 26 24 18 15 15 14 16 13 12 10 9 9 9 8 8 6 4 4 6 9 12 14 16 19 21 23 22 19 15 11 10 10 8 7 7 7 7 9 10 12 14 17 19
Wind_Direction
305 311 318 323 325 323 323 320 323 329 327 330 338 342 346 339 334 326 315 308 304 306 306 309 294 281 261 254 244 231 224 226 224 223 218 222 222 226 226 221 219 219 224 227
306 312 318 322 326 323 318 318 323 331 332 336 345 349 349 344 337 327 315 308 303 300 310 310 284 283 282 250 236 226 227 224 222 221 217 217 221 224 228 230 231 219 222 225
307 314 319 321 326 322 319 317 325 331 336 344 346 352 354 346 342 326 323 313 311 310 305 308 297 298 312 243 215 220 219 224 220 219 217 215 218 222 226 231 235 241 234 229
307 313 320 323 325 324 320 318 326 336 342 350 348 355 356 350 346 335 337 320 320 322 318 305 296 282 292 247 221 219 223 210 219 215 215 213 216 222 229 232 234 234 235 238
308 313 320 323 321 324 322 318 327 337 346 351 352 355 357 352 346 333 342 336 329 330 329 323 318 294 275 257 226 224 212 198 207 214 212 211 213 219 224 226 228 232 225 229
305 314 319 322 320 323 324 317 327 337 349 352 353 355 357 357 347 335 335 344 339 341 344 335 327 311 279 248 228 216 190 177 192 206 208 208 211 216 221 221 221 221 219 220
304 314 319 324 321 324 324 321 327 340 349 353 355 355 357 358 350 345 337 349 348 356 353 343 345 321 263 240 206 191 171 161 174 194 203 206 211 217 220 218 217 220 221 223
307 316 321 325 324 327 327 327 338 344 348 355 358 357 359 358 357 346 344 358 3 8 14 0 343 13 131 170 171 175 165 153 157 176 191 204 212 216 222 219 216 219 220 222
307 318 322 326 325 331 331 330 337 339 348 351 353 354 358 358 358 353 352 8 20 26 34 37 42 43 43 69 125 144 158 152 153 167 187 197 205 212 218 220 220 221 222 223
307 318 323 328 331 336 333 333 337 342 346 349 357 356 358 358 359 2 6 11 35 45 36 33 46 45 54 69 94 122 144 153 161 172 182 191 199 206 213 220 222 224 226 228
308 319 326 329 335 339 335 336 338 338 343 351 355 358 1 359 1 6 33 41 58 72 48 48 56 53 56 66 97 118 133 145 161 169 175 180 186 194 202 211 215 219 222 224
310 318 326 330 334 337 339 344 342 335 345 350 356 1 3 2 3 13 46 51 76 85 63 63 64 61 62 68 92 114 128 140 150 162 174 180 186 191 194 196 198 202 206 199
311 319 325 333 335 341 344 347 345 340 341 351 358 2 8 8 11 27 46 70 83 95 72 63 59 54 54 56 59 102 131 141 146 155 163 167 171 173 177 185 192 197 199 196
310 320 326 334 341 344 345 344 344 349 350 357 5 10 15 18 25 56 86 81 76 80 75 61 54 51 50 53 63 92 104 112 123 135 146 157 172 183 189 197 200 205 204 210
308 320 328 331 344 348 347 346 354 1 359 6 19 27 28 34 42 81 69 89 81 82 77 71 62 60 62 60 61 85 96 102 115 126 135 150 162 178 190 199 199 162 179 190
306 323 332 330 349 353 353 358 18 10 14 27 37 41 42 51 53 84 83 68 73 77 72 64 59 57 62 65 72 78 77 90 100 81 69 158 162 161 168 147 152 151 177 176
303 323 331 343 359 1 4 15 27 23 29 43 53 58 63 68 66 67 86 77 72 79 75 62 66 72 70 62 63 71 78 83 107 97 88 151 166 163 133 117 147 158 177 164
296 318 330 355 10 13 15 23 31 30 48 53 72 77 77 78 75 80 74 75 68 61 59 62 68 72 62 63 69 73 80 73 73 75 92 119 140 146 139 129 147 179 192 190
288 311 328 6 18 21 25 31 39 44 56 65 83 87 84 82 80 83 85 83 83 78 77 76 75 76 74 72 71 72 74 66 67 71 79 87 90 95 111 125 143 149 138 152
276 298 313 11 35 34 32 33 44 58 64 82 88 91 88 85 84 82 80 78 78 78 75 72 71 69 66 64 65 68 68 68 69 69 69 71 72 86 84 83 87 92 92 88
258 279 287 298 59 48 47 39 46 64 80 97 97 95 92 88 86 84 81 79 77 73 70 67 64 62 61 61 60 58 59 61 62 63 62 63 62 60 65 68 64 53 41 319
248 258 267 256 171 73 67 56 55 72 95 105 109 111 105 95 88 84 81 77 71 68 65 62 58 54 49 46 46 45 44 48 51 53 56 62 66 68 68 51 339 298 296 298
237 252 253 251 221 166 114 89 75 79 97 111 119 124 112 102 91 83 83 75 68 62 54 49 44 38 34 31 31 33 37 40 33 31 30 27 16 6 353 300 277 279 295 306
228 240 245 246 243 213 189 146 121 109 105 118 131 133 128 121 107 100 82 64 51 41 32 25 20 16 15 15 18 27 40 53 56 53 47 39 34 31 18 358 342 327 320 317
224 236 241 240 241 231 214 200 182 163 157 158 157 150 148 147 145 132 89 35 16 6 1 359 357 357 0 2 8 14 27 37 21 10 12 3 349 333 323 315 306 302 302 301
224 229 234 229 232 232 229 222 210 200 193 193 198 202 200 201 206 223 270 311 323 327 332 337 341 345 350 350 356 358 360 352 342 342 340 332 320 311 305 302 301 300 299 298